Weather History for Amsterdam, Netherlands

Change the Weather History Date:

Friday, September 27, 2013

  Actual Average Record
Temperature  
Mean Temperature 52 °F -  
Max Temperature 61 °F 57 °F 70 °F (2014)
Min Temperature 44 °F 46 °F 42 °F (2008)
Degree Days  
Heating Degree Days 12    
Growing Degree Days 2 (Base 50)    
Moisture  
Dew Point 45 °F    
Average Humidity 75    
Maximum Humidity 87    
Minimum Humidity 47    
Precipitation  
Precipitation 0.00 in - - ()
Sea Level Pressure  
Sea Level Pressure 30.05 in    
Wind  
Wind Speed 7 mph ()    
Max Wind Speed 13 mph    
Max Gust Speed -    
Visibility 9.1 miles    
Events      
Averages and records for this station are not official NWS values.
T = Trace of Precipitation, MM = Missing Value Source: Averaged Metar Reports

Daily Weather History Graph

Daily Weather History Graph

Search for Another Location

Airport:

Trip Planner

Search our weather history database for the weather conditions in past years. The results will help you decide how hot, cold, wet, or windy it might be!

Date:

Astronomy

Sep. 27, 2013 Rise Set
Actual Time 7:35 AM CEST 7:27 PM CEST
Civil Twilight 7:01 AM CEST 8:01 PM CEST
Nautical Twilight 6:21 AM CEST 8:40 PM CEST
Astronomical Twilight 5:40 AM CEST 9:21 PM CEST
Moon No Moon Rise 3:35 PM CEST (9/27)
Length of Visible Light 12h 59m
Length of Day
11h 52m
Waning Gibbous, 48% of the Moon is Illuminated
Sep 27
Waning Gibbous
Oct 5
New
Oct 12
First Quarter
Oct 19
Full
Oct 27
Last Quarter

Hourly Weather History & Observations

Time (CEST) Temp. Windchill Dew Point Humidity Pressure Visibility Wind Dir Wind Speed Gust Speed Precip Events Conditions
12:25 AM 53.6 °F - 44.6 °F 72% 30.09 in 6.2 mi East 8.1 mph - N/A   Mostly Cloudy
12:55 AM 53.6 °F - 46.4 °F 77% 30.09 in 6.2 mi East 6.9 mph - N/A   Mostly Cloudy
1:25 AM 51.8 °F - 44.6 °F 76% 30.09 in 6.2 mi East 6.9 mph - N/A   Scattered Clouds
1:55 AM 48.2 °F - 42.8 °F 82% 30.09 in 6.2 mi East 4.6 mph - N/A   Partly Cloudy
2:25 AM 48.2 °F - 44.6 °F 87% 30.09 in - East 4.6 mph - N/A   Clear
2:55 AM 48.2 °F - 44.6 °F 87% 30.09 in - East 3.5 mph - N/A   Clear
3:25 AM 48.2 °F - 44.6 °F 87% 30.09 in - ENE 5.8 mph - N/A   Clear
3:55 AM 46.4 °F 44.3 °F 42.8 °F 87% 30.09 in - East 4.6 mph - N/A   Clear
4:25 AM 46.4 °F 43.5 °F 42.8 °F 87% 30.09 in - ENE 5.8 mph - N/A   Clear
4:55 AM 46.4 °F 42.9 °F 42.8 °F 87% 30.09 in - ENE 6.9 mph - N/A   Clear
5:25 AM 44.6 °F 40.7 °F 41.0 °F 87% 30.09 in - ENE 6.9 mph - N/A   Clear
5:55 AM 46.4 °F 42.9 °F 42.8 °F 87% 30.06 in - East 6.9 mph - N/A   Clear
6:25 AM 46.4 °F 42.4 °F 42.8 °F 87% 30.06 in - ENE 8.1 mph - N/A   Clear
6:55 AM 48.2 °F - 42.8 °F 82% 30.06 in - East 5.8 mph - N/A   Clear
7:25 AM 48.2 °F - 42.8 °F 82% 30.06 in - East 8.1 mph - N/A   Clear
7:55 AM 46.4 °F 42.4 °F 42.8 °F 87% 30.06 in - East 8.1 mph - N/A   Clear
8:25 AM 46.4 °F 42.9 °F 42.8 °F 87% 30.09 in - East 6.9 mph - N/A   Clear
8:55 AM 48.2 °F - 44.6 °F 87% 30.09 in - East 9.2 mph - N/A   Clear
9:25 AM 50.0 °F - 44.6 °F 82% 30.09 in - East 9.2 mph - N/A   Clear
9:55 AM 51.8 °F - 44.6 °F 76% 30.09 in - East 10.4 mph - N/A   Clear
10:25 AM 53.6 °F - 44.6 °F 72% 30.09 in - East 12.7 mph - N/A   Clear
10:55 AM 53.6 °F - 42.8 °F 67% 30.09 in - East 12.7 mph - N/A   Clear
11:00 AM 54 °F - 45 °F 62% 30.10 in 19 mi ENE 11.2 mph - -   Overcast
11:25 AM 55.4 °F - 46.4 °F 72% 30.06 in 6.2 mi East 11.5 mph - N/A   Partly Cloudy
11:55 AM 55.4 °F - 44.6 °F 67% 30.06 in 6.2 mi East 11.5 mph - N/A   Partly Cloudy
12:25 PM 57.2 °F - 46.4 °F 67% 30.06 in 6.2 mi ENE 11.5 mph - N/A   Partly Cloudy
12:55 PM 57.2 °F - 46.4 °F 67% 30.06 in - East 10.4 mph - N/A   Clear
1:25 PM 57.2 °F - 48.2 °F 72% 30.06 in - East 9.2 mph - N/A   Clear
1:55 PM 59.0 °F - 48.2 °F 67% 30.06 in - East 9.2 mph - N/A   Clear
2:00 PM 59 °F - 47 °F 55% 30.07 in 16 mi East 6.7 mph - -   Partly Cloudy
2:25 PM 59.0 °F - 48.2 °F 67% 30.04 in 6.2 mi ENE 9.2 mph - N/A   Partly Cloudy
2:55 PM 59.0 °F - 48.2 °F 67% 30.04 in 6.2 mi East 6.9 mph - N/A   Partly Cloudy
3:25 PM 60.8 °F - 48.2 °F 63% 30.04 in - ENE 10.4 mph - N/A   Clear
3:55 PM 60.8 °F - 48.2 °F 63% 30.04 in - East 9.2 mph - N/A   Clear
4:25 PM 60.8 °F - 46.4 °F 59% 30.04 in - East 9.2 mph - N/A   Clear
4:55 PM 60.8 °F - 44.6 °F 55% 30.01 in - East 10.4 mph - N/A   Clear
5:00 PM 61 °F - 46 °F 47% 30.03 in 19 mi East 11.2 mph - -  
5:25 PM 60.8 °F - 46.4 °F 59% 30.01 in - East 9.2 mph - N/A   Clear
5:55 PM 59.0 °F - 46.4 °F 63% 30.01 in - East 8.1 mph - N/A   Clear
6:25 PM 57.2 °F - 44.6 °F 63% 30.01 in - East 8.1 mph - N/A   Clear
6:55 PM 55.4 °F - 44.6 °F 67% 30.01 in - East 6.9 mph - N/A   Clear
7:25 PM 53.6 °F - 44.6 °F 72% 30.01 in - East 5.8 mph - N/A   Clear
7:55 PM 50.0 °F - 44.6 °F 82% 30.01 in - East 5.8 mph - N/A   Clear
8:00 PM 51 °F - 44 °F 70% 30.03 in 28 mi East 6.7 mph - -   Partly Cloudy
8:25 PM 51.8 °F - 44.6 °F 76% 30.01 in - East 5.8 mph - N/A   Clear
8:55 PM 48.2 °F - 44.6 °F 87% 30.01 in - ENE 5.8 mph - N/A   Clear
9:25 PM 48.2 °F - 44.6 °F 87% 30.01 in - East 6.9 mph - N/A   Clear
9:55 PM 48.2 °F - 42.8 °F 82% 30.01 in - ENE 6.9 mph - N/A   Clear
10:25 PM 46.4 °F 42.9 °F 42.8 °F 87% 30.01 in - East 6.9 mph - N/A   Clear
10:55 PM 50.0 °F - 44.6 °F 82% 30.01 in - ENE 5.8 mph - N/A   Clear
11:00 PM 49 °F - 44 °F 76% 30.03 in 25 mi ENE 4.5 mph - -  
11:25 PM 48.2 °F - 42.8 °F 82% 30.01 in - East 5.8 mph - N/A   Clear
11:55 PM 46.4 °F 42.9 °F 42.8 °F 87% 30.01 in - East 6.9 mph - N/A   Clear